Location: Kellogg
(38.0159°N, 90.0546°W)
Time: 09:22:23
(UTC+00:00)

Altair - Pass Details

Date: 21 September 2024
Orbit: 1501 x 1682 km, 47.2° (Epoch: 07 October)

Event Time Altitude Azimuth Distance (km) Brightness Sun altitude
Rises 15:24:36 0° 292° (WNW) 4,936 9.7 39.2°
Reaches altitude 10° 15:29:03 10° 276° (W) 3,934 9.4 39.9°
Maximum altitude 15:35:20 19° 237° (WSW) 3,253 9.3 40.8°
Drops below altitude 10° 15:41:33 10° 197° (SSW) 3,862 10.0 41.7°
Sets 15:45:55 0° 180° (S) 4,813 10.6 42.3°
